Soldotna, AK

3:25 PM AKDT on June 28, 2017 (GMT -0800)
Soldotna

Weather History for PASX - December, 2013

Change the Weather History Date:

Saturday, December 7, 2013

  Actual Average Record
Temperature  
Mean Temperature 32 °F -  
Max Temperature 33 °F 22 °F 44 °F (1960)
Min Temperature 30 °F 7 °F -28 °F (1962)
Degree Days  
Heating Degree Days 34    
Moisture  
Dew Point 31 °F    
Average Humidity 95    
Maximum Humidity 100    
Minimum Humidity 93    
Precipitation  
Precipitation 0.00 in - - ()
Sea Level Pressure  
Sea Level Pressure 30.47 in    
Wind  
Wind Speed 1 mph (ESE)    
Max Wind Speed 6 mph    
Max Gust Speed -    
Visibility 3 miles    
Events      
Averages and records for this station are not official NWS values.
T = Trace of Precipitation, MM = Missing Value Source: NWS Daily Summary

Daily Weather History Graph

Daily Weather History Graph

Search for Another Location

Airport or City:

Trip Planner

Search our weather history database for the weather conditions in past years. The results will help you decide how hot, cold, wet, or windy it might be!

Date:

Astronomy

Dec. 07, 2013 Rise Set
Actual Time 9:55 AM AKST 3:55 PM AKST
Civil Twilight 8:57 AM AKST 4:53 PM AKST
Nautical Twilight 8:00 AM AKST 5:50 PM AKST
Astronomical Twilight 7:09 AM AKST 6:42 PM AKST
Moon 12:40 PM AKST (12/7) 11:03 PM AKST (12/7)
Length of Visible Light 7h 55m
Length of Day
6h 00m
Waxing Crescent, 31% of the Moon is Illuminated
Dec 7
Waxing Crescent
Dec 9
First Quarter
Dec 17
Full
Dec 25
Last Quarter
Jan 1
New

Hourly Weather History & Observations

Time (AKST) Temp. Windchill Dew Point Humidity Pressure Visibility Wind Dir Wind Speed Gust Speed Precip Events Conditions
12:16 AM 32.0 °F - 30.2 °F 93% 30.50 in 0.8 mi Calm Calm - N/A   Overcast
12:36 AM 32.0 °F - 30.2 °F 93% 30.50 in 0.8 mi Calm Calm - N/A   Overcast
12:56 AM 32.0 °F - 30.2 °F 93% 30.50 in 0.8 mi Calm Calm - N/A   Overcast
1:16 AM 32.0 °F 28.7 °F 32.0 °F 100% 30.49 in 0.8 mi ENE 3.5 mph - N/A   Overcast
1:36 AM 32.0 °F - 32.0 °F 100% 30.49 in 0.5 mi Calm Calm - N/A   Overcast
1:56 AM 32.0 °F - 32.0 °F 100% 30.49 in 0.5 mi Calm Calm - N/A   Overcast
2:16 AM 32.0 °F - 30.2 °F 93% 30.48 in 0.2 mi Calm Calm - N/A   Overcast
2:36 AM 32.0 °F 28.7 °F 30.2 °F 93% 30.48 in 0.2 mi ESE 3.5 mph - N/A   Overcast
2:56 AM 32.0 °F 28.7 °F 30.2 °F 93% 30.48 in 0.2 mi SE 3.5 mph - N/A   Overcast
3:16 AM 32.0 °F 28.7 °F 30.2 °F 93% 30.48 in 0.2 mi SE 3.5 mph - N/A   Overcast
3:36 AM 32.0 °F - 32.0 °F 100% 30.48 in 0.2 mi Calm Calm - N/A   Overcast
3:56 AM 32.0 °F - 30.2 °F 93% 30.48 in 0.5 mi Calm Calm - N/A   Overcast
4:16 AM 32.0 °F - 30.2 °F 93% 30.48 in 0.5 mi Calm Calm - N/A   Overcast
4:36 AM 32.0 °F - 30.2 °F 93% 30.49 in 0.5 mi Calm Calm - N/A   Overcast
4:56 AM 32.0 °F - 30.2 °F 93% 30.48 in 0.8 mi Calm Calm - N/A   Overcast
5:16 AM 32.0 °F 28.7 °F 30.2 °F 93% 30.47 in 1.0 mi ESE 3.5 mph - N/A   Overcast
5:36 AM 32.0 °F - 30.2 °F 93% 30.47 in 0.8 mi Calm Calm - N/A   Overcast
5:56 AM 32.0 °F - 30.2 °F 93% 30.47 in 0.8 mi Calm Calm - N/A   Overcast
6:16 AM 30.2 °F - 30.2 °F 100% 30.48 in 0.8 mi Calm Calm - N/A   Overcast
6:36 AM 30.2 °F - 28.4 °F 93% 30.47 in 0.5 mi Calm Calm - N/A   Overcast
6:56 AM 30.2 °F - 30.2 °F 100% 30.47 in 0.5 mi Calm Calm - N/A   Overcast
7:16 AM 30.2 °F - 28.4 °F 93% 30.47 in 0.5 mi Calm Calm - N/A   Overcast
7:36 AM 30.2 °F - 28.4 °F 93% 30.47 in 0.5 mi Calm Calm - N/A   Overcast
7:56 AM 30.2 °F - 28.4 °F 93% 30.47 in 0.5 mi Calm Calm - N/A   Overcast
8:16 AM 30.2 °F - 28.4 °F 93% 30.47 in 2.0 mi Calm Calm - N/A   Overcast
8:36 AM 32.0 °F 28.7 °F 30.2 °F 93% 30.47 in 3.0 mi ESE 3.5 mph - N/A   Overcast
8:56 AM 30.2 °F 24.3 °F 28.4 °F 93% 30.47 in 1.0 mi East 5.8 mph - N/A   Overcast
9:16 AM 30.2 °F 25.4 °F 28.4 °F 93% 30.47 in 0.8 mi East 4.6 mph - N/A   Overcast
9:36 AM 30.2 °F 25.4 °F 28.4 °F 93% 30.47 in 1.2 mi East 4.6 mph - N/A   Overcast
9:56 AM 30.2 °F - 28.4 °F 93% 30.47 in 5.0 mi Calm Calm - N/A   Overcast
10:16 AM 32.0 °F 28.7 °F 30.2 °F 93% 30.47 in 8.0 mi NE 3.5 mph - N/A   Overcast
10:36 AM 32.0 °F 28.7 °F 30.2 °F 93% 30.47 in 9.0 mi NE 3.5 mph - N/A   Overcast
10:56 AM 32.0 °F - 30.2 °F 93% 30.46 in 9.0 mi Calm Calm - N/A   Overcast
11:16 AM 32.0 °F 28.7 °F 30.2 °F 93% 30.46 in 9.0 mi East 3.5 mph - N/A   Overcast
11:36 AM 32.0 °F - 32.0 °F 100% 30.46 in 8.0 mi Calm Calm - N/A   Overcast
11:56 AM 32.0 °F - 30.2 °F 93% 30.46 in 10.0 mi Calm Calm - N/A   Overcast
12:16 PM 32.0 °F - 32.0 °F 100% 30.46 in 10.0 mi Calm Calm - N/A   Overcast
12:36 PM 32.0 °F - 32.0 °F 100% 30.46 in 7.0 mi Calm Calm - N/A   Overcast
12:56 PM 33.8 °F 30.8 °F 32.0 °F 93% 30.46 in 9.0 mi East 3.5 mph - N/A   Overcast
1:16 PM 33.8 °F 29.6 °F 32.0 °F 93% 30.45 in 8.0 mi East 4.6 mph - N/A   Overcast
1:36 PM 33.8 °F 29.6 °F 32.0 °F 93% 30.45 in 2.5 mi East 4.6 mph - N/A   Overcast
1:56 PM 33.8 °F 30.8 °F 32.0 °F 93% 30.45 in 1.5 mi ESE 3.5 mph - N/A   Overcast
2:16 PM 33.8 °F - 32.0 °F 93% 30.46 in 2.5 mi Calm Calm - N/A   Overcast
2:36 PM 33.8 °F 30.8 °F 32.0 °F 93% 30.46 in 2.5 mi SE 3.5 mph - N/A   Overcast
2:56 PM 33.8 °F 30.8 °F 32.0 °F 93% 30.46 in 4.0 mi SSE 3.5 mph - N/A   Overcast
3:16 PM 33.8 °F - 32.0 °F 93% 30.46 in 7.0 mi Calm Calm - N/A   Overcast
3:36 PM 33.8 °F - 32.0 °F 93% 30.46 in 8.0 mi Calm Calm - N/A   Overcast
3:56 PM 33.8 °F - 32.0 °F 93% 30.45 in 3.0 mi Calm Calm - N/A   Overcast
4:16 PM 33.8 °F - 32.0 °F 93% 30.45 in 2.5 mi Calm Calm - N/A   Overcast
4:36 PM 33.8 °F - 32.0 °F 93% 30.45 in 1.8 mi Calm Calm - N/A   Overcast
4:56 PM 32.0 °F - 32.0 °F 100% 30.45 in 2.5 mi Calm Calm - N/A   Overcast
5:16 PM 32.0 °F - 32.0 °F 100% 30.45 in 6.0 mi Calm Calm - N/A   Overcast
5:36 PM 33.8 °F - 32.0 °F 93% 30.45 in 10.0 mi Calm Calm - N/A   Overcast
5:56 PM 32.0 °F - 32.0 °F 100% 30.45 in 5.0 mi Calm Calm - N/A   Overcast
6:16 PM 32.0 °F - 32.0 °F 100% 30.45 in 4.0 mi Calm Calm - N/A   Overcast
6:36 PM 32.0 °F - 32.0 °F 100% 30.45 in 5.0 mi Calm Calm - N/A   Overcast
6:56 PM 33.8 °F - 32.0 °F 93% 30.46 in 3.0 mi Calm Calm - N/A   Overcast
7:16 PM 32.0 °F - 32.0 °F 100% 30.45 in 1.8 mi Calm Calm - N/A   Overcast
7:36 PM 32.0 °F - 32.0 °F 100% 30.45 in 1.5 mi Calm Calm - N/A   Overcast
7:56 PM 32.0 °F - 32.0 °F 100% 30.45 in 1.0 mi Calm Calm - N/A   Overcast
8:16 PM 32.0 °F - 32.0 °F 100% 30.45 in 0.8 mi Calm Calm - N/A   Overcast
8:36 PM 32.0 °F - 30.2 °F 93% 30.45 in 1.2 mi Calm Calm - N/A   Overcast
8:56 PM 32.0 °F - 32.0 °F 100% 30.45 in 1.8 mi Calm Calm - N/A   Overcast
9:16 PM 32.0 °F - 32.0 °F 100% 30.46 in 0.5 mi Calm Calm - N/A   Overcast
9:36 PM 32.0 °F - 32.0 °F 100% 30.45 in 0.8 mi Calm Calm - N/A   Overcast
9:56 PM 32.0 °F - 32.0 °F 100% 30.46 in 0.8 mi Calm Calm - N/A   Overcast
10:16 PM 32.0 °F - 32.0 °F 100% 30.46 in 0.5 mi Calm Calm - N/A   Overcast
10:36 PM 32.0 °F - 32.0 °F 100% 30.45 in 0.5 mi Calm Calm - N/A   Overcast
10:56 PM 32.0 °F - 32.0 °F 100% 30.46 in 0.5 mi Calm Calm - N/A   Overcast
11:16 PM 32.0 °F - 30.2 °F 93% 30.46 in 0.2 mi Calm Calm - N/A   Overcast
11:36 PM 32.0 °F - 30.2 °F 93% 30.47 in 0.5 mi Calm Calm - N/A   Overcast
11:56 PM 32.0 °F - 30.2 °F 93% 30.47 in 0.8 mi Calm Calm - N/A   Overcast